Location: San Gennaro Vesuviano
(40.8833°N, 14.5333°E)
Time: 21:21:45
(UTC+00:00)

RESURS DK-1 - Pass Details

Date: 22 April 2021
Orbit: 554 x 563 km, 69.9° (Epoch: 10 May)

Event Time Altitude Azimuth Distance (km) Brightness Sun altitude
Rises 18:29:17 0° 216° (SW) 2,723 6.0 -7.9°
Reaches altitude 10° 18:31:31 10° 222° (SW) 1,834 5.2 -8.3°
Maximum altitude 18:35:30 50° 298° (WNW) 713 3.4 -9.0°
Drops below altitude 10° 18:39:32 10° 15° (NNE) 1,853 5.2 -9.7°
Sets 18:41:48 0° 21° (NNE) 2,754 6.0 -10.1°
